Year,Month,Day,Hour,Minute,Value (Times are PST for temperature in C)
2011,05,18,00,00,7.10
2011,05,18,00,01,7.10
2011,05,18,00,02,7.00
2011,05,18,00,03,7.00
2011,05,18,00,04,7.00
2011,05,18,00,05,7.00
2011,05,18,00,06,6.90
2011,05,18,00,07,6.90
2011,05,18,00,08,6.90
2011,05,18,00,09,6.90
2011,05,18,00,10,6.90
2011,05,18,00,11,6.80
2011,05,18,00,12,6.80
2011,05,18,00,13,6.80
2011,05,18,00,14,6.80
2011,05,18,00,15,6.80
2011,05,18,00,16,6.70
2011,05,18,00,17,6.70
2011,05,18,00,18,6.70
2011,05,18,00,19,6.70
2011,05,18,00,20,6.70
2011,05,18,00,21,6.60
2011,05,18,00,22,6.60
2011,05,18,00,23,6.60
2011,05,18,00,24,6.60
2011,05,18,00,25,6.60
2011,05,18,00,26,6.60
2011,05,18,00,27,6.60
2011,05,18,00,28,6.50
2011,05,18,00,29,6.40
2011,05,18,00,30,6.40
2011,05,18,00,31,6.40
2011,05,18,00,32,6.40
2011,05,18,00,33,6.40
2011,05,18,00,34,6.40
2011,05,18,00,35,6.40
2011,05,18,00,36,6.30
2011,05,18,00,37,6.30
2011,05,18,00,38,6.30
2011,05,18,00,39,6.30
2011,05,18,00,40,6.20
2011,05,18,00,41,6.20
2011,05,18,00,42,6.20
2011,05,18,00,43,6.20
2011,05,18,00,44,6.20
2011,05,18,00,45,6.20
2011,05,18,00,46,6.20
2011,05,18,00,47,6.20
2011,05,18,00,48,6.10
2011,05,18,00,49,6.10
2011,05,18,00,50,6.10
2011,05,18,00,51,6.10
2011,05,18,00,52,6.10
2011,05,18,00,53,6.10
2011,05,18,00,54,6.00
2011,05,18,00,55,6.00
2011,05,18,00,56,6.00
2011,05,18,00,57,5.90
2011,05,18,00,58,5.90
2011,05,18,00,59,5.90
2011,05,18,01,00,5.80
2011,05,18,01,01,5.80
2011,05,18,01,02,5.80
2011,05,18,01,03,5.70
2011,05,18,01,04,5.70
2011,05,18,01,05,5.70
2011,05,18,01,06,5.70
2011,05,18,01,07,5.70
2011,05,18,01,08,5.70
2011,05,18,01,09,5.70
2011,05,18,01,10,5.70
2011,05,18,01,11,5.70
2011,05,18,01,12,5.70
2011,05,18,01,13,5.60
2011,05,18,01,14,5.60
2011,05,18,01,15,5.60
2011,05,18,01,16,5.60
2011,05,18,01,17,5.60
2011,05,18,01,18,5.60
2011,05,18,01,19,5.60
2011,05,18,01,20,5.60
2011,05,18,01,21,5.60
2011,05,18,01,22,5.60
2011,05,18,01,23,5.60
2011,05,18,01,24,5.60
2011,05,18,01,25,5.60
2011,05,18,01,26,5.60
2011,05,18,01,27,5.50
2011,05,18,01,28,5.50
2011,05,18,01,29,5.50
2011,05,18,01,30,5.50
2011,05,18,01,31,5.50
2011,05,18,01,32,5.50
2011,05,18,01,33,5.50
2011,05,18,01,34,5.50
2011,05,18,01,35,5.50
2011,05,18,01,36,5.50
2011,05,18,01,37,5.50
2011,05,18,01,38,5.50
2011,05,18,01,39,5.40
2011,05,18,01,40,5.40
2011,05,18,01,41,5.40
2011,05,18,01,42,5.40
2011,05,18,01,43,5.40
2011,05,18,01,44,5.40
2011,05,18,01,45,5.40
2011,05,18,01,46,5.30
2011,05,18,01,47,5.30
2011,05,18,01,48,5.30
2011,05,18,01,49,5.30
2011,05,18,01,50,5.30
2011,05,18,01,51,5.30
2011,05,18,01,52,5.30
2011,05,18,01,53,5.30
2011,05,18,01,54,5.20
2011,05,18,01,55,5.20
2011,05,18,01,56,5.20
2011,05,18,01,57,5.20
2011,05,18,01,58,5.10
2011,05,18,01,59,5.10
2011,05,18,02,00,5.10
2011,05,18,02,01,5.10
2011,05,18,02,02,5.10
2011,05,18,02,03,5.10
2011,05,18,02,04,5.10
2011,05,18,02,05,5.10
2011,05,18,02,06,5.10
2011,05,18,02,07,4.90
2011,05,18,02,08,4.90
2011,05,18,02,09,4.90
2011,05,18,02,10,4.90
2011,05,18,02,11,4.90
2011,05,18,02,12,4.90
2011,05,18,02,13,4.90
2011,05,18,02,14,4.90
2011,05,18,02,15,4.90
2011,05,18,02,16,4.90
2011,05,18,02,17,4.90
2011,05,18,02,18,4.90
2011,05,18,02,19,4.90
2011,05,18,02,20,4.90
2011,05,18,02,21,4.80
2011,05,18,02,22,4.80
2011,05,18,02,23,4.80
2011,05,18,02,24,4.80
2011,05,18,02,25,4.80
2011,05,18,02,26,4.80
2011,05,18,02,27,4.80
2011,05,18,02,28,4.80
2011,05,18,02,29,4.80
2011,05,18,02,30,4.80
2011,05,18,02,31,4.80
2011,05,18,02,32,4.80
2011,05,18,02,33,4.80
2011,05,18,02,34,4.70
2011,05,18,02,35,4.70
2011,05,18,02,36,4.70
2011,05,18,02,37,4.70
2011,05,18,02,38,4.70
2011,05,18,02,39,4.70
2011,05,18,02,40,4.70
2011,05,18,02,41,4.70
2011,05,18,02,42,4.70
2011,05,18,02,43,4.70
2011,05,18,02,44,4.70
2011,05,18,02,45,4.60
2011,05,18,02,46,4.60
2011,05,18,02,47,4.60
2011,05,18,02,48,4.60
2011,05,18,02,49,4.60
2011,05,18,02,50,4.60
2011,05,18,02,51,4.60
2011,05,18,02,52,4.60
2011,05,18,02,53,4.60
2011,05,18,02,54,4.60
2011,05,18,02,55,4.50
2011,05,18,02,56,4.50
2011,05,18,02,57,4.50
2011,05,18,02,58,4.50
2011,05,18,02,59,4.50
2011,05,18,03,00,4.50
2011,05,18,03,01,4.50
2011,05,18,03,02,4.50
2011,05,18,03,03,4.50
2011,05,18,03,04,4.50
2011,05,18,03,05,4.50
2011,05,18,03,06,4.40
2011,05,18,03,07,4.40
2011,05,18,03,08,4.40
2011,05,18,03,09,4.40
2011,05,18,03,10,4.30
2011,05,18,03,11,4.30
2011,05,18,03,12,4.30
2011,05,18,03,13,4.30
2011,05,18,03,14,4.30
2011,05,18,03,15,4.20
2011,05,18,03,16,4.20
2011,05,18,03,17,4.20
2011,05,18,03,18,4.20
2011,05,18,03,19,4.20
2011,05,18,03,20,4.20
2011,05,18,03,21,4.20
2011,05,18,03,22,4.20
2011,05,18,03,23,4.20
2011,05,18,03,24,4.20
2011,05,18,03,25,4.10
2011,05,18,03,26,4.10
2011,05,18,03,27,4.10
2011,05,18,03,28,4.10
2011,05,18,03,29,4.10
2011,05,18,03,30,4.10
2011,05,18,03,31,4.10
2011,05,18,03,32,4.10
2011,05,18,03,33,4.10
2011,05,18,03,34,4.10
2011,05,18,03,35,4.10
2011,05,18,03,36,4.10
2011,05,18,03,37,4.10
2011,05,18,03,38,4.10
2011,05,18,03,39,4.00
2011,05,18,03,40,4.00
2011,05,18,03,41,4.00
2011,05,18,03,42,4.00
2011,05,18,03,43,4.00
2011,05,18,03,44,3.90
2011,05,18,03,45,3.90
2011,05,18,03,46,3.90
2011,05,18,03,47,3.90
2011,05,18,03,48,3.90
2011,05,18,03,49,3.90
2011,05,18,03,50,3.90
2011,05,18,03,51,3.90
2011,05,18,03,52,3.90
2011,05,18,03,53,3.90
2011,05,18,03,54,3.90
2011,05,18,03,55,3.90
2011,05,18,03,56,3.90
2011,05,18,03,57,3.90
2011,05,18,03,58,3.90
2011,05,18,03,59,3.90
2011,05,18,04,00,3.90
2011,05,18,04,01,3.90
2011,05,18,04,02,3.90
2011,05,18,04,03,3.90
2011,05,18,04,04,3.90
2011,05,18,04,05,3.90
2011,05,18,04,06,3.90
2011,05,18,04,07,3.90
2011,05,18,04,08,3.90
2011,05,18,04,09,3.80
2011,05,18,04,10,3.80
2011,05,18,04,11,3.80
2011,05,18,04,12,3.80
2011,05,18,04,13,3.80
2011,05,18,04,14,3.80
2011,05,18,04,15,3.80
2011,05,18,04,16,3.80
2011,05,18,04,17,3.80
2011,05,18,04,18,3.80
2011,05,18,04,19,3.80
2011,05,18,04,20,3.80
2011,05,18,04,21,3.80
2011,05,18,04,22,3.80
2011,05,18,04,23,3.80
2011,05,18,04,24,3.80
2011,05,18,04,25,3.80
2011,05,18,04,26,3.70
2011,05,18,04,27,3.70
2011,05,18,04,28,3.70
2011,05,18,04,29,3.60
2011,05,18,04,30,3.60
2011,05,18,04,31,3.60
2011,05,18,04,32,3.60
2011,05,18,04,33,3.60
2011,05,18,04,34,3.50
2011,05,18,04,35,3.50
2011,05,18,04,36,3.50
2011,05,18,04,37,3.50
2011,05,18,04,38,3.50
2011,05,18,04,39,3.50
2011,05,18,04,40,3.50
2011,05,18,04,41,3.40
2011,05,18,04,42,3.40
2011,05,18,04,43,3.40
2011,05,18,04,44,3.40
2011,05,18,04,45,3.40
2011,05,18,04,46,3.30
2011,05,18,04,47,3.30
2011,05,18,04,48,3.30
2011,05,18,04,49,3.30
2011,05,18,04,50,3.30
2011,05,18,04,51,3.30
2011,05,18,04,52,3.30
2011,05,18,04,53,3.30
2011,05,18,04,54,3.30
2011,05,18,04,55,3.30
2011,05,18,04,56,3.30
2011,05,18,04,57,3.30
2011,05,18,04,58,3.20
2011,05,18,04,59,3.20
2011,05,18,05,00,3.20
2011,05,18,05,01,3.20
2011,05,18,05,02,3.20
2011,05,18,05,03,3.20
2011,05,18,05,04,3.20
2011,05,18,05,05,3.20
2011,05,18,05,06,3.20
2011,05,18,05,07,3.20
2011,05,18,05,08,3.20
2011,05,18,05,09,3.20
2011,05,18,05,10,3.20
2011,05,18,05,11,3.30
2011,05,18,05,12,3.30
2011,05,18,05,13,3.30
2011,05,18,05,14,3.30
2011,05,18,05,15,3.30
2011,05,18,05,16,3.30
2011,05,18,05,17,3.30
2011,05,18,05,18,3.30
2011,05,18,05,19,3.30
2011,05,18,05,20,3.20
2011,05,18,05,21,3.20
2011,05,18,05,22,3.20
2011,05,18,05,23,3.10
2011,05,18,05,24,3.10
2011,05,18,05,25,3.10
2011,05,18,05,26,3.10
2011,05,18,05,27,3.10
2011,05,18,05,28,3.10
2011,05,18,05,29,3.10
2011,05,18,05,30,3.10
2011,05,18,05,31,3.20
2011,05,18,05,32,3.20
2011,05,18,05,33,3.20
2011,05,18,05,34,3.20
2011,05,18,05,35,3.20
2011,05,18,05,36,3.20
2011,05,18,05,37,3.20
2011,05,18,05,38,3.20
2011,05,18,05,39,3.20
2011,05,18,05,40,3.20
2011,05,18,05,41,3.20
2011,05,18,05,42,3.20
2011,05,18,05,43,3.20
2011,05,18,05,44,3.20
2011,05,18,05,45,3.20
2011,05,18,05,46,3.20
2011,05,18,05,47,3.10
2011,05,18,05,48,3.10
2011,05,18,05,49,3.10
2011,05,18,05,50,3.20
2011,05,18,05,51,3.20
2011,05,18,05,52,3.20
2011,05,18,05,53,3.20
2011,05,18,05,54,3.20
2011,05,18,05,55,3.20
2011,05,18,05,56,3.20
2011,05,18,05,57,3.20
2011,05,18,05,58,3.20
2011,05,18,05,59,3.30
2011,05,18,06,00,3.30
2011,05,18,06,01,3.30
2011,05,18,06,02,3.30
2011,05,18,06,03,3.30
2011,05,18,06,04,3.30
2011,05,18,06,05,3.30
2011,05,18,06,06,3.20
2011,05,18,06,07,3.20
2011,05,18,06,08,3.20
2011,05,18,06,09,3.30
2011,05,18,06,10,3.30
2011,05,18,06,11,3.30
2011,05,18,06,12,3.40
2011,05,18,06,13,3.40
2011,05,18,06,14,3.40
2011,05,18,06,15,3.40
2011,05,18,06,16,3.40
2011,05,18,06,17,3.40
2011,05,18,06,18,3.40
2011,05,18,06,19,3.50
2011,05,18,06,20,3.50
2011,05,18,06,21,3.50
2011,05,18,06,22,3.60
2011,05,18,06,23,3.60
2011,05,18,06,24,3.70
2011,05,18,06,25,3.70
2011,05,18,06,26,3.80
2011,05,18,06,27,3.80
2011,05,18,06,28,3.90
2011,05,18,06,29,4.00
2011,05,18,06,30,4.00
2011,05,18,06,31,4.10
2011,05,18,06,32,4.20
2011,05,18,06,33,4.20
2011,05,18,06,34,4.30
2011,05,18,06,35,4.40
2011,05,18,06,36,4.40
2011,05,18,06,37,4.50
2011,05,18,06,38,4.60
2011,05,18,06,39,4.60
2011,05,18,06,40,4.70
2011,05,18,06,41,4.80
2011,05,18,06,42,4.90
2011,05,18,06,43,4.90
2011,05,18,06,44,5.00
2011,05,18,06,45,5.10
2011,05,18,06,46,5.10
2011,05,18,06,47,5.20
2011,05,18,06,48,5.30
2011,05,18,06,49,5.30
2011,05,18,06,50,5.50
2011,05,18,06,51,5.60
2011,05,18,06,52,5.80
2011,05,18,06,53,5.90
2011,05,18,06,54,6.00
2011,05,18,06,55,6.20
2011,05,18,06,56,6.40
2011,05,18,06,57,6.50
2011,05,18,06,58,6.70
2011,05,18,06,59,6.90
2011,05,18,07,00,7.10
2011,05,18,07,01,7.30
2011,05,18,07,02,7.40
2011,05,18,07,03,7.60
2011,05,18,07,04,7.80
2011,05,18,07,05,7.90
2011,05,18,07,06,8.10
2011,05,18,07,07,8.20
2011,05,18,07,08,8.40
2011,05,18,07,09,8.50
2011,05,18,07,10,8.70
2011,05,18,07,11,8.80
2011,05,18,07,12,8.90
2011,05,18,07,13,9.00
2011,05,18,07,14,9.10
2011,05,18,07,15,9.20
2011,05,18,07,16,9.30
2011,05,18,07,17,9.40
2011,05,18,07,18,9.40
2011,05,18,07,19,9.50
2011,05,18,07,20,9.50
2011,05,18,07,21,9.60
2011,05,18,07,22,9.60
2011,05,18,07,23,9.60
2011,05,18,07,24,9.60
2011,05,18,07,25,9.60
2011,05,18,07,26,9.60
2011,05,18,07,27,9.70
2011,05,18,07,28,9.70
2011,05,18,07,29,9.70
2011,05,18,07,30,9.70
2011,05,18,07,31,9.60
2011,05,18,07,32,9.60
2011,05,18,07,33,9.60
2011,05,18,07,34,9.60
2011,05,18,07,35,9.60
2011,05,18,07,36,9.60
2011,05,18,07,37,9.60
2011,05,18,07,38,9.60
2011,05,18,07,39,9.60
2011,05,18,07,40,9.60
2011,05,18,07,41,9.70
2011,05,18,07,42,9.70
2011,05,18,07,43,9.70
2011,05,18,07,44,9.70
2011,05,18,07,45,9.70
2011,05,18,07,46,9.80
2011,05,18,07,47,9.80
2011,05,18,07,48,9.80
2011,05,18,07,49,9.80
2011,05,18,07,50,9.80
2011,05,18,07,51,9.80
2011,05,18,07,52,9.80
2011,05,18,07,53,9.80
2011,05,18,07,54,9.80
2011,05,18,07,55,9.90
2011,05,18,07,56,9.90
2011,05,18,07,57,9.90
2011,05,18,07,58,9.90
2011,05,18,07,59,9.90
2011,05,18,08,00,9.90
2011,05,18,08,01,10.00
2011,05,18,08,02,10.10
2011,05,18,08,03,10.10
2011,05,18,08,04,10.10
2011,05,18,08,05,10.10
2011,05,18,08,06,10.00
2011,05,18,08,07,9.90
2011,05,18,08,08,9.90
2011,05,18,08,09,9.90
2011,05,18,08,10,9.90
2011,05,18,08,11,9.90
2011,05,18,08,12,9.90
2011,05,18,08,13,9.90
2011,05,18,08,14,9.90
2011,05,18,08,15,9.90
2011,05,18,08,16,9.90
2011,05,18,08,17,9.90
2011,05,18,08,18,9.90
2011,05,18,08,19,9.90
2011,05,18,08,20,9.90
2011,05,18,08,21,9.90
2011,05,18,08,22,9.90
2011,05,18,08,23,9.90
2011,05,18,08,24,9.90
2011,05,18,08,25,9.90
2011,05,18,08,26,9.90
2011,05,18,08,27,9.90
2011,05,18,08,28,9.90
2011,05,18,08,29,9.90
2011,05,18,08,30,9.90
2011,05,18,08,31,9.90
2011,05,18,08,32,10.00
2011,05,18,08,33,10.10
2011,05,18,08,34,10.10
2011,05,18,08,35,10.10
2011,05,18,08,36,10.20
2011,05,18,08,37,10.20
2011,05,18,08,38,10.20
2011,05,18,08,39,10.30
2011,05,18,08,40,10.40
2011,05,18,08,41,10.40
2011,05,18,08,42,10.40
2011,05,18,08,43,10.40
2011,05,18,08,44,10.40
2011,05,18,08,45,10.50
2011,05,18,08,46,10.60
2011,05,18,08,47,10.60
2011,05,18,08,48,10.60
2011,05,18,08,49,10.70
2011,05,18,08,50,10.70
2011,05,18,08,51,10.70
2011,05,18,08,52,10.70
2011,05,18,08,53,10.70
2011,05,18,08,54,10.70
2011,05,18,08,55,10.70
2011,05,18,08,56,10.70
2011,05,18,08,57,10.70
2011,05,18,08,58,10.70
2011,05,18,08,59,10.70
2011,05,18,09,00,10.70
2011,05,18,09,01,10.80
2011,05,18,09,02,10.80
2011,05,18,09,03,10.90
2011,05,18,09,04,10.90
2011,05,18,09,05,10.90
2011,05,18,09,06,10.90
2011,05,18,09,07,10.90
2011,05,18,09,08,10.90
2011,05,18,09,09,10.90
2011,05,18,09,10,10.90
2011,05,18,09,11,10.90
2011,05,18,09,12,10.80
2011,05,18,09,13,10.80
2011,05,18,09,14,10.80
2011,05,18,09,15,10.90
2011,05,18,09,16,10.90
2011,05,18,09,17,10.90
2011,05,18,09,18,11.00
2011,05,18,09,19,11.10
2011,05,18,09,20,11.10
2011,05,18,09,21,11.10
2011,05,18,09,22,11.10
2011,05,18,09,23,11.00
2011,05,18,09,24,10.90
2011,05,18,09,25,10.90
2011,05,18,09,26,10.90
2011,05,18,09,27,10.80
2011,05,18,09,28,10.90
2011,05,18,09,29,10.90
2011,05,18,09,30,11.00
2011,05,18,09,31,11.10
2011,05,18,09,32,11.10
2011,05,18,09,33,11.10
2011,05,18,09,34,11.20
2011,05,18,09,35,11.10
2011,05,18,09,36,11.10
2011,05,18,09,37,11.10
2011,05,18,09,38,11.10
2011,05,18,09,39,11.10
2011,05,18,09,40,11.10
2011,05,18,09,41,11.10
2011,05,18,09,42,11.10
2011,05,18,09,43,11.10
2011,05,18,09,44,11.10
2011,05,18,09,45,11.10
2011,05,18,09,46,11.10
2011,05,18,09,47,11.10
2011,05,18,09,48,11.20
2011,05,18,09,49,11.20
2011,05,18,09,50,11.20
2011,05,18,09,51,11.30
2011,05,18,09,52,11.30
2011,05,18,09,53,11.30
2011,05,18,09,54,11.30
2011,05,18,09,55,11.40
2011,05,18,09,56,11.40
2011,05,18,09,57,11.40
2011,05,18,09,58,11.40
2011,05,18,09,59,11.50
2011,05,18,10,00,11.60
2011,05,18,10,01,11.50
2011,05,18,10,02,11.40
2011,05,18,10,03,11.40
2011,05,18,10,04,11.40
2011,05,18,10,05,11.30
2011,05,18,10,06,11.30
2011,05,18,10,07,11.30
2011,05,18,10,08,11.20
2011,05,18,10,09,11.20
2011,05,18,10,10,11.20
2011,05,18,10,11,11.20
2011,05,18,10,12,11.20
2011,05,18,10,13,11.20
2011,05,18,10,14,11.20
2011,05,18,10,15,11.20
2011,05,18,10,16,11.20
2011,05,18,10,17,11.10
2011,05,18,10,18,11.10
2011,05,18,10,19,11.10
2011,05,18,10,20,11.10
2011,05,18,10,21,11.10
2011,05,18,10,22,11.10
2011,05,18,10,23,11.10
2011,05,18,10,24,11.10
2011,05,18,10,25,11.10
2011,05,18,10,26,11.10
2011,05,18,10,27,11.10
2011,05,18,10,28,11.10
2011,05,18,10,29,11.10
2011,05,18,10,30,11.10
2011,05,18,10,31,11.10
2011,05,18,10,32,11.20
2011,05,18,10,33,11.20
2011,05,18,10,34,11.30
2011,05,18,10,35,11.40
2011,05,18,10,36,11.40
2011,05,18,10,37,11.50
2011,05,18,10,38,11.60
2011,05,18,10,39,11.60
2011,05,18,10,40,11.60
2011,05,18,10,41,11.70
2011,05,18,10,42,11.70
2011,05,18,10,43,11.70
2011,05,18,10,44,11.70
2011,05,18,10,45,11.70
2011,05,18,10,46,11.60
2011,05,18,10,47,11.70
2011,05,18,10,48,11.80
2011,05,18,10,49,11.80
2011,05,18,10,50,11.70
2011,05,18,10,51,11.70
2011,05,18,10,52,11.70
2011,05,18,10,53,11.70
2011,05,18,10,54,11.80
2011,05,18,10,55,11.80
2011,05,18,10,56,11.80
2011,05,18,10,57,11.90
2011,05,18,10,58,11.90
2011,05,18,10,59,11.80
2011,05,18,11,00,11.80
2011,05,18,11,01,11.80
2011,05,18,11,02,11.70
2011,05,18,11,03,11.60
2011,05,18,11,04,11.60
2011,05,18,11,05,11.60
2011,05,18,11,06,11.50
2011,05,18,11,07,11.50
2011,05,18,11,08,11.60
2011,05,18,11,09,11.60
2011,05,18,11,10,11.70
2011,05,18,11,11,11.80
2011,05,18,11,12,11.80
2011,05,18,11,13,11.70
2011,05,18,11,14,11.70
2011,05,18,11,15,11.80
2011,05,18,11,16,11.80
2011,05,18,11,17,11.80
2011,05,18,11,18,11.80
2011,05,18,11,19,11.80
2011,05,18,11,20,11.80
2011,05,18,11,21,11.80
2011,05,18,11,22,11.90
2011,05,18,11,23,12.00
2011,05,18,11,24,12.00
2011,05,18,11,25,12.10
2011,05,18,11,26,12.20
2011,05,18,11,27,12.30
2011,05,18,11,28,12.20
2011,05,18,11,29,12.20
2011,05,18,11,30,12.10
2011,05,18,11,31,12.10
2011,05,18,11,32,12.10
2011,05,18,11,33,12.10
2011,05,18,11,34,12.10
2011,05,18,11,35,12.10
2011,05,18,11,36,12.00
2011,05,18,11,37,12.00
2011,05,18,11,38,11.90
2011,05,18,11,39,11.90
2011,05,18,11,40,11.90
2011,05,18,11,41,11.90
2011,05,18,11,42,11.90
2011,05,18,11,43,11.90
2011,05,18,11,44,11.90
2011,05,18,11,45,11.80
2011,05,18,11,46,11.80
2011,05,18,11,47,11.80
2011,05,18,11,48,11.90
2011,05,18,11,49,12.00
2011,05,18,11,50,12.10
2011,05,18,11,51,12.20
2011,05,18,11,52,12.20
2011,05,18,11,53,12.20
2011,05,18,11,54,12.20
2011,05,18,11,55,12.10
2011,05,18,11,56,12.20
2011,05,18,11,57,12.10
2011,05,18,11,58,12.10
2011,05,18,11,59,12.10
2011,05,18,12,00,12.10
2011,05,18,12,01,12.20
2011,05,18,12,02,12.20
2011,05,18,12,03,12.30
2011,05,18,12,04,12.40
2011,05,18,12,05,12.50
2011,05,18,12,06,12.60
2011,05,18,12,07,12.80
2011,05,18,12,08,12.90
2011,05,18,12,09,12.90
2011,05,18,12,10,12.90
2011,05,18,12,11,12.90
2011,05,18,12,12,12.90
2011,05,18,12,13,12.90
2011,05,18,12,14,12.90
2011,05,18,12,15,13.00
2011,05,18,12,16,12.90
2011,05,18,12,17,12.80
2011,05,18,12,18,12.70
2011,05,18,12,19,12.60
2011,05,18,12,20,12.50
2011,05,18,12,21,12.50
2011,05,18,12,22,12.50
2011,05,18,12,23,12.50
2011,05,18,12,24,12.60
2011,05,18,12,25,12.60
2011,05,18,12,26,12.60
2011,05,18,12,27,12.60
2011,05,18,12,28,12.60
2011,05,18,12,29,12.50
2011,05,18,12,30,12.50
2011,05,18,12,31,12.50
2011,05,18,12,32,12.50
2011,05,18,12,33,12.60
2011,05,18,12,34,12.70
2011,05,18,12,35,12.70
2011,05,18,12,36,12.70
2011,05,18,12,37,12.70
2011,05,18,12,38,12.70
2011,05,18,12,39,12.80
2011,05,18,12,40,12.80
2011,05,18,12,41,12.70
2011,05,18,12,42,12.70
2011,05,18,12,43,12.70
2011,05,18,12,44,12.70
2011,05,18,12,45,12.70
2011,05,18,12,46,12.80
2011,05,18,12,47,12.80
2011,05,18,12,48,12.80
2011,05,18,12,49,12.80
2011,05,18,12,50,12.80
2011,05,18,12,51,12.80
2011,05,18,12,52,12.80
2011,05,18,12,53,12.90
2011,05,18,12,54,13.00
2011,05,18,12,55,13.10
2011,05,18,12,56,13.10
2011,05,18,12,57,13.30
2011,05,18,12,58,13.30
2011,05,18,12,59,13.30
2011,05,18,13,00,13.40
2011,05,18,13,01,13.40
2011,05,18,13,02,13.40
2011,05,18,13,03,13.30
2011,05,18,13,04,13.30
2011,05,18,13,05,13.30
2011,05,18,13,06,13.40
2011,05,18,13,07,13.50
2011,05,18,13,08,13.60
2011,05,18,13,09,13.60
2011,05,18,13,10,13.50
2011,05,18,13,11,13.60
2011,05,18,13,12,13.70
2011,05,18,13,13,13.70
2011,05,18,13,14,13.70
2011,05,18,13,15,13.80
2011,05,18,13,16,13.90
2011,05,18,13,17,14.00
2011,05,18,13,18,14.10
2011,05,18,13,19,14.20
2011,05,18,13,20,14.20
2011,05,18,13,21,14.20
2011,05,18,13,22,14.20
2011,05,18,13,23,14.20
2011,05,18,13,24,14.30
2011,05,18,13,25,14.30
2011,05,18,13,26,14.40
2011,05,18,13,27,14.50
2011,05,18,13,28,14.40
2011,05,18,13,29,14.40
2011,05,18,13,30,14.30
2011,05,18,13,31,14.30
2011,05,18,13,32,14.40
2011,05,18,13,33,14.50
2011,05,18,13,34,14.60
2011,05,18,13,35,14.60
2011,05,18,13,36,14.70
2011,05,18,13,37,14.70
2011,05,18,13,38,14.60
2011,05,18,13,39,14.60
2011,05,18,13,40,14.70
2011,05,18,13,41,14.80
2011,05,18,13,42,14.80
2011,05,18,13,43,14.90
2011,05,18,13,44,14.90
2011,05,18,13,45,14.90
2011,05,18,13,46,14.90
2011,05,18,13,47,14.80
2011,05,18,13,48,14.80
2011,05,18,13,49,14.80
2011,05,18,13,50,14.70
2011,05,18,13,51,14.80
2011,05,18,13,52,14.80
2011,05,18,13,53,14.90
2011,05,18,13,54,15.00
2011,05,18,13,55,15.00
2011,05,18,13,56,15.10
2011,05,18,13,57,15.10
2011,05,18,13,58,15.10
2011,05,18,13,59,15.00
2011,05,18,14,00,14.90
2011,05,18,14,01,14.90
2011,05,18,14,02,14.80
2011,05,18,14,03,14.70
2011,05,18,14,04,14.60
2011,05,18,14,05,14.50
2011,05,18,14,06,14.50
2011,05,18,14,07,14.50
2011,05,18,14,08,14.50
2011,05,18,14,09,14.50
2011,05,18,14,10,14.50
2011,05,18,14,11,14.60
2011,05,18,14,12,14.70
2011,05,18,14,13,14.70
2011,05,18,14,14,14.80
2011,05,18,14,15,14.80
2011,05,18,14,16,14.80
2011,05,18,14,17,14.70
2011,05,18,14,18,14.60
2011,05,18,14,19,14.60
2011,05,18,14,20,14.50
2011,05,18,14,21,14.40
2011,05,18,14,22,14.50
2011,05,18,14,23,14.50
2011,05,18,14,24,14.60
2011,05,18,14,25,14.60
2011,05,18,14,26,14.60
2011,05,18,14,27,14.60
2011,05,18,14,28,14.60
2011,05,18,14,29,14.60
2011,05,18,14,30,14.70
2011,05,18,14,31,14.70
2011,05,18,14,32,14.80
2011,05,18,14,33,14.80
2011,05,18,14,34,14.90
2011,05,18,14,35,14.90
2011,05,18,14,36,15.00
2011,05,18,14,37,15.00
2011,05,18,14,38,15.00
2011,05,18,14,39,15.00
2011,05,18,14,40,15.00
2011,05,18,14,41,15.00
2011,05,18,14,42,14.90
2011,05,18,14,43,14.80
2011,05,18,14,44,14.70
2011,05,18,14,45,14.70
2011,05,18,14,46,14.70
2011,05,18,14,47,14.80
2011,05,18,14,48,14.80
2011,05,18,14,49,14.80
2011,05,18,14,50,14.80
2011,05,18,14,51,14.80
2011,05,18,14,52,14.90
2011,05,18,14,53,15.00
2011,05,18,14,54,15.20
2011,05,18,14,55,15.30
2011,05,18,14,56,15.40
2011,05,18,14,57,15.50
2011,05,18,14,58,15.60
2011,05,18,14,59,15.70
2011,05,18,15,00,15.80
2011,05,18,15,01,15.90
2011,05,18,15,02,15.90
2011,05,18,15,03,15.90
2011,05,18,15,04,15.80
2011,05,18,15,05,15.80
2011,05,18,15,06,15.70
2011,05,18,15,07,15.50
2011,05,18,15,08,15.40
2011,05,18,15,09,15.40
2011,05,18,15,10,15.40
2011,05,18,15,11,15.40
2011,05,18,15,12,15.40
2011,05,18,15,13,15.40
2011,05,18,15,14,15.50
2011,05,18,15,15,15.50
2011,05,18,15,16,15.40
2011,05,18,15,17,15.40
2011,05,18,15,18,15.40
2011,05,18,15,19,15.50
2011,05,18,15,20,15.50
2011,05,18,15,21,15.50
2011,05,18,15,22,15.50
2011,05,18,15,23,15.50
2011,05,18,15,24,15.50
2011,05,18,15,25,15.60
2011,05,18,15,26,15.70
2011,05,18,15,27,15.90
2011,05,18,15,28,16.00
2011,05,18,15,29,16.10
2011,05,18,15,30,16.10
2011,05,18,15,31,16.20
2011,05,18,15,32,16.20
2011,05,18,15,33,16.10
2011,05,18,15,34,16.10
2011,05,18,15,35,16.10
2011,05,18,15,36,16.10
2011,05,18,15,37,16.10
2011,05,18,15,38,16.20
2011,05,18,15,39,16.40
2011,05,18,15,40,16.40
2011,05,18,15,41,16.40
2011,05,18,15,42,16.40
2011,05,18,15,43,16.40
2011,05,18,15,44,16.40
2011,05,18,15,45,16.40
2011,05,18,15,46,16.40
2011,05,18,15,47,16.30
2011,05,18,15,48,16.30
2011,05,18,15,49,16.30
2011,05,18,15,50,16.40
2011,05,18,15,51,16.40
2011,05,18,15,52,16.40
2011,05,18,15,53,16.40
2011,05,18,15,54,16.50
2011,05,18,15,55,16.60
2011,05,18,15,56,16.70
2011,05,18,15,57,16.70
2011,05,18,15,58,16.70
2011,05,18,15,59,16.60
2011,05,18,16,00,16.50
2011,05,18,16,01,16.40
2011,05,18,16,02,16.40
2011,05,18,16,03,16.40
2011,05,18,16,04,16.40
2011,05,18,16,05,16.40
2011,05,18,16,06,16.40
2011,05,18,16,07,16.40
2011,05,18,16,08,16.40
2011,05,18,16,09,16.50
2011,05,18,16,10,16.60
2011,05,18,16,11,16.60
2011,05,18,16,12,16.60
2011,05,18,16,13,16.60
2011,05,18,16,14,16.60
2011,05,18,16,15,16.60
2011,05,18,16,16,16.60
2011,05,18,16,17,16.70
2011,05,18,16,18,16.60
2011,05,18,16,19,16.60
2011,05,18,16,20,16.40
2011,05,18,16,21,16.50
2011,05,18,16,22,16.60
2011,05,18,16,23,16.60
2011,05,18,16,24,16.70
2011,05,18,16,25,16.80
2011,05,18,16,26,16.80
2011,05,18,16,27,16.80
2011,05,18,16,28,16.70
2011,05,18,16,29,16.70
2011,05,18,16,30,16.80
2011,05,18,16,31,16.90
2011,05,18,16,32,16.90
2011,05,18,16,33,16.90
2011,05,18,16,34,16.90
2011,05,18,16,35,16.90
2011,05,18,16,36,16.80
2011,05,18,16,37,16.80
2011,05,18,16,38,16.70
2011,05,18,16,39,16.70
2011,05,18,16,40,16.60
2011,05,18,16,41,16.60
2011,05,18,16,42,16.50
2011,05,18,16,43,16.50
2011,05,18,16,44,16.40
2011,05,18,16,45,16.50
2011,05,18,16,46,16.60
2011,05,18,16,47,16.60
2011,05,18,16,48,16.70
2011,05,18,16,49,16.80
2011,05,18,16,50,16.80
2011,05,18,16,51,16.80
2011,05,18,16,52,16.80
2011,05,18,16,53,16.80
2011,05,18,16,54,16.70
2011,05,18,16,55,16.70
2011,05,18,16,56,16.70
2011,05,18,16,57,16.70
2011,05,18,16,58,16.70
2011,05,18,16,59,16.70
2011,05,18,17,00,16.70
2011,05,18,17,01,16.90
2011,05,18,17,02,16.90
2011,05,18,17,03,16.90
2011,05,18,17,04,16.90
2011,05,18,17,05,16.90
2011,05,18,17,06,16.80
2011,05,18,17,07,16.80
2011,05,18,17,08,16.80
2011,05,18,17,09,16.80
2011,05,18,17,10,16.70
2011,05,18,17,11,16.80
2011,05,18,17,12,16.90
2011,05,18,17,13,16.90
2011,05,18,17,14,16.90
2011,05,18,17,15,17.00
2011,05,18,17,16,17.00
2011,05,18,17,17,17.00
2011,05,18,17,18,17.10
2011,05,18,17,19,17.10
2011,05,18,17,20,17.10
2011,05,18,17,21,17.10
2011,05,18,17,22,17.10
2011,05,18,17,23,17.10
2011,05,18,17,24,17.20
2011,05,18,17,25,17.30
2011,05,18,17,26,17.30
2011,05,18,17,27,17.30
2011,05,18,17,28,17.30
2011,05,18,17,29,17.30
2011,05,18,17,30,17.30
2011,05,18,17,31,17.30
2011,05,18,17,32,17.30
2011,05,18,17,33,17.30
2011,05,18,17,34,17.30
2011,05,18,17,35,17.30
2011,05,18,17,36,17.30
2011,05,18,17,37,17.30
2011,05,18,17,38,17.30
2011,05,18,17,39,17.30
2011,05,18,17,40,17.40
2011,05,18,17,41,17.40